Glendale Luke AFB, AZ

2:42 PM MST on March 23, 2017 (GMT -0700)
Luke Air Force Base

Weather History for KLUF - November, 2013

Change the Weather History Date:

Thursday, November 7, 2013

  Actual Average Record
Temperature  
Mean Temperature 64 °F -  
Max Temperature 82 °F 81 °F 93 °F (1934)
Min Temperature 46 °F 46 °F 28 °F (1918)
Degree Days  
Heating Degree Days 1    
Growing Degree Days 14 (Base 50)    
Moisture  
Dew Point 22 °F    
Average Humidity 26    
Maximum Humidity 44    
Minimum Humidity 6    
Precipitation  
Precipitation 0.00 in - - ()
Sea Level Pressure  
Sea Level Pressure 30.10 in    
Wind  
Wind Speed 6 mph (North)    
Max Wind Speed 13 mph    
Max Gust Speed -    
Visibility 10 miles    
Events      
Averages and records for this station are not official NWS values.
T = Trace of Precipitation, MM = Missing Value Source: NWS Daily Summary

Daily Weather History Graph

Daily Weather History Graph

Search for Another Location

Airport or City:

Trip Planner

Search our weather history database for the weather conditions in past years. The results will help you decide how hot, cold, wet, or windy it might be!

Date:

Astronomy

Nov. 07, 2013 Rise Set
Actual Time 6:54 AM MST 5:32 PM MST
Civil Twilight 6:27 AM MST 5:58 PM MST
Nautical Twilight 5:58 AM MST 6:27 PM MST
Astronomical Twilight 5:29 AM MST 6:56 PM MST
Moon 11:03 AM MST (11/7) 9:49 PM MST (11/7)
Length of Visible Light 11h 30m
Length of Day
10h 38m
Waxing Crescent, 23% of the Moon is Illuminated
Nov 7
Waxing Crescent
Nov 9
First Quarter
Nov 17
Full
Nov 25
Last Quarter
Dec 2
New

Hourly Weather History & Observations

Time (MST) Temp. Dew Point Humidity Pressure Visibility Wind Dir Wind Speed Gust Speed Precip Events Conditions
12:58 AM 53.2 °F 25.3 °F 34% 30.16 in 10.0 mi North 4.6 mph - N/A   Clear
1:58 AM 51.6 °F 26.6 °F 38% 30.15 in 10.0 mi NW 6.9 mph - N/A   Clear
2:58 AM 48.7 °F 27.7 °F 44% 30.15 in 10.0 mi NNW 8.1 mph - N/A   Clear
3:58 AM 49.8 °F 23.0 °F 35% 30.15 in 10.0 mi NNE 2.3 mph - N/A   Clear
4:58 AM 49.3 °F 27.0 °F 42% 30.16 in 10.0 mi North 1.2 mph - N/A   Clear
5:58 AM 47.5 °F 23.9 °F 40% 30.17 in 10.0 mi North 3.5 mph - N/A   Clear
6:58 AM 46.8 °F 26.1 °F 44% 30.18 in 10.0 mi North 6.9 mph - N/A   Clear
7:58 AM 52.0 °F 27.1 °F 38% 30.19 in 10.0 mi North 5.8 mph - N/A   Clear
8:58 AM 61.5 °F 26.8 °F 27% 30.19 in 10.0 mi North 2.3 mph - N/A   Clear
9:58 AM 68.7 °F 27.3 °F 21% 30.19 in 10.0 mi North 3.5 mph - N/A   Clear
10:58 AM 75.2 °F 15.4 °F 10% 30.17 in 10.0 mi NE 8.1 mph - N/A   Clear
11:58 AM 79.7 °F 13.1 °F 8% 30.14 in 10.0 mi East 12.7 mph - N/A   Clear
12:58 PM 80.6 °F 11.5 °F 7% 30.09 in 10.0 mi East 12.7 mph - N/A   Clear
1:58 PM 81.3 °F 12.0 °F 7% 30.05 in 10.0 mi ESE 5.8 mph - N/A   Partly Cloudy
2:58 PM 82.4 °F 9.3 °F 6% 30.03 in 10.0 mi ESE 6.9 mph - N/A   Partly Cloudy
3:58 PM 82.0 °F 9.7 °F 6% 30.01 in 10.0 mi East 6.9 mph - N/A   Partly Cloudy
4:58 PM 79.9 °F 16.5 °F 9% 30.01 in 10.0 mi ENE 1.2 mph - N/A   Partly Cloudy
5:58 PM 72.0 °F 23.9 °F 17% 30.01 in 8.0 mi West 3.5 mph - N/A   Clear
6:58 PM 65.3 °F 30.9 °F 28% 30.03 in 10.0 mi NW 8.1 mph - N/A   Clear
7:58 PM 61.2 °F 28.9 °F 30% 30.01 in 10.0 mi NW 5.8 mph - N/A   Clear
8:58 PM 58.8 °F 27.0 °F 30% 30.02 in 10.0 mi NNW 9.2 mph - N/A   Clear
9:58 PM 57.2 °F 26.2 °F 31% 30.03 in 10.0 mi North 5.8 mph - N/A   Clear
10:58 PM 55.8 °F 24.6 °F 30% 30.02 in 10.0 mi North 8.1 mph - N/A   Clear
11:58 PM 53.8 °F 25.7 °F 34% 30.02 in 10.0 mi North 8.1 mph - N/A   Clear